Location: Laura�t
(43.9341°N, 0.2497°E)
Time: 23:28:21
(UTC+00:00)

SL-4 R/B - Pass Details

Date: 03 March 2021
Orbit: 428 x 663 km, 51.6° (Epoch: 17 April)

Event Time Altitude Azimuth Distance (km) Brightness Sun altitude
Rises 19:49:57 0° 302° (WNW) 2,460 6.6 -22.2°
Reaches altitude 10° 19:52:12 10° 310° (NW) 1,561 5.2 -22.6°
Enters shadow 19:54:39 33° 344° (NNW) 750 2.9 -23.1°
